Location: ???? ?????????
(44.3677°N, 135.2344°E)
Time: 09:30:23
(UTC+00:00)

Cosmos 1975 - Pass Details

Date: 19 May 2025
Orbit: 487 x 506 km, 82.5° (Epoch: 12 June)

Event Time Altitude Azimuth Distance (km) Brightness Sun altitude
Rises 13:17:42 0° 2° (N) 2,571 7.3 -22.0°
Reaches altitude 10° 13:20:04 10° 16° (NNE) 1,683 6.0 -22.1°
Enters shadow 13:22:46 25° 61° (ENE) 1,009 4.2 -22.3°
